Meteo Giornale » Osservazioni meteo Italia » Lecce

ore: 17:55 - Osservazioni Meteo Lecce
Lat. 40° 14' N Lon. 18° 9' E Alt. 48 metri s.l.m.

poco_nuvoloso Europe/Rome

20 °C

Poco Nuvoloso

Temp. 24 Ore

12 °C

22 °C

Sud-Ovest

18.5 Km/h

Dew point 13 °C

Umidità 64 %

Visibilità  10 Km

Il sole sorge alle ore 05:25

Il sole tramonta alle ore 20:02

Data e Ora Cielo e Fenomeni T °C DP °C Um. % Pres. hPa Vis. km Vento km/h
Oggi h: 17:55 poco_nuvoloso Poco Nuvoloso 20 13 64 1012 10 SO 18.5
Oggi h: 16:55 poco_nuvoloso Poco Nuvoloso 21 11 52 1012 10 SO 20.3
Oggi h: 15:55 poco_nuvoloso Poco Nuvoloso 22 11 49 1012 10 O/SO 20.3
Oggi h: 14:55 poco_nuvoloso Poco Nuvoloso 21 12 56 1012 10 SO 14.8
Oggi h: 13:55 poco_nuvoloso Poco Nuvoloso 20 11 56 1012 10 SO 11.1
Oggi h: 11:55 poco_nuvoloso Poco Nuvoloso 20 12 59 1012 10 SO 18.5
Oggi h: 10:55 poco_nuvoloso Poco Nuvoloso 18 12 67 1011 10 O/SO 20.3
Oggi h: 09:55 nuvoloso Nuvoloso 16 12 77 1011 10 O/SO 7.4
Oggi h: 08:55 nuvoloso Nuvoloso 16 12 77 1011 10 O/SO 9.3
Oggi h: 07:55 poco_nuvoloso Poco Nuvoloso 15 14 93 1010 10 S/SO 7.4
Oggi h: 06:55 poco_nuvoloso Poco Nuvoloso 13 13 100 1010 10 N 1.8
Oggi h: 05:55 poco_nuvoloso Poco Nuvoloso 13 12 93 1009 10 N 1.8
Oggi h: 04:55 sereno Sereno 13 12 93 1009 10 SO 9.3
Oggi h: 03:55 sereno Sereno 12 12 100 1009 10 N 5.5
Oggi h: 02:55 sereno Sereno 12 11 93 1009 10 N 5.5
Oggi h: 01:55 sereno Sereno 12 12 100 1009 10 N 5.5
Oggi h: 00:55 sereno Sereno 15 14 93 1009 10 O/SO 11.1
Ieri h: 23:55 sereno Sereno 16 14 87 1009 10 O/SO 14.8
Ieri h: 22:55 sereno Sereno 16 14 87 1009 10 O/SO 14.8
Ieri h: 21:55 sereno Sereno 16 13 82 1007 10 O/SO 16.7
Ieri h: 20:55 sereno Sereno 16 14 87 1007 10 SO 18.5
Ieri h: 19:55 sereno Sereno 17 14 82 1007 10 SO 14.8